Jrs Mira — V2FS4 — position and weather

sailwx.info

Track history (hours):
 
Tides and Currents Weather Stations Pressure Air Temp Water Temp Dewpoint Dewpoint Depression Visibility Wind Speed Wind Dir Waves Ship Positions

Jrs Mira

Last reported at 2014-Oct-30 18:30 UTC. Time now 2014-Oct-31 21:29 UTC.
Position N 35°56' W 005°12'.

Length 107 m; draft 8.4 m.

Type: Cargo ship. MMSI: 305780000.

Date/timePositionNaut miles runAvg speedWind from/ knotsBaromVisibWave heightAir tempDewpointWater temp
2014-Oct-30 18:30N 35°56' W 005°12'6 5.9
2014-Oct-30 17:31N 35°54' W 005°18'0 0.0
2014-Oct-30 16:31N 35°54' W 005°18'0 0.0
2014-Oct-30 15:31N 35°54' W 005°18'0 0.0
2014-Oct-30 14:31N 35°54' W 005°18'1 1.3
2014-Oct-30 13:33N 35°55' W 005°19'9 8.6
2014-Oct-30 12:32N 35°56' W 005°30'146 9.8
2014-Oct-29 21:33N 36°23' W 008°28'10 9.7
2014-Oct-29 20:33N 36°26' W 008°39'10 9.6
2014-Oct-29 19:33N 36°28' W 008°51'2010.1
2014-Oct-29 17:33N 36°33' W 009°15'12 9.6
2014-Oct-29 16:18N 36°42' W 009°26'7 9.9
2014-Oct-29 15:33N 36°47' W 009°32'3310.0
2014-Oct-29 12:17N 37°19' W 009°42'710.0
2014-Oct-29 11:33N 37°26' W 009°44'1110.7
2014-Oct-29 10:33N 37°36' W 009°47'1210.8
2014-Oct-29 09:26N 37°48' W 009°50'910.6
2014-Oct-29 08:33N 37°57' W 009°53'1611.0
2014-Oct-29 07:06N 38°13' W 009°58'610.8
2014-Oct-29 06:32N 38°19' W 009°59'47210.3
2014-Oct-27 08:33N 46°03' W 008°03'2410.0
2014-Oct-27 06:07N 46°24' W 007°48'610.3
2014-Oct-27 05:33N 46°29' W 007°44'258 9.6
2014-Oct-26 02:33N 49°46' W 003°32'1211.6
2014-Oct-26 01:33N 49°52' W 003°17'13310.1
2014-Oct-25 12:25N 50°32' E 000°02'910.2
2014-Oct-25 11:30N 50°35' E 000°16'9 9.3
2014-Oct-25 10:33N 50°37' E 000°29'9 8.7
2014-Oct-25 09:33N 50°41' E 000°41'10 9.6
2014-Oct-25 08:33N 50°47' E 000°53'1111.2
2014-Oct-25 07:33N 50°54' E 001°07'1313.0
2014-Oct-25 06:33N 51°02' E 001°23'1312.6
2014-Oct-25 05:34N 51°10' E 001°38'1110.7
2014-Oct-25 04:34N 51°19' E 001°49'10 9.6
2014-Oct-25 03:34N 51°27' E 001°56'9 8.8
2014-Oct-25 02:34N 51°34' E 002°04'9 8.7
2014-Oct-25 01:31N 51°42' E 002°13'4711.0
2014-Oct-24 21:15N 52°28' E 002°14'2412.3
2014-Oct-24 19:16N 52°52' E 002°02'912.7
2014-Oct-24 18:34N 52°57' E 001°50'1211.9
2014-Oct-24 17:33N 53°06' E 001°36'1211.3
2014-Oct-24 16:30N 53°16' E 001°27'3510.4
2014-Oct-24 13:06N 53°44' E 000°51'5 9.8
2014-Oct-24 12:33N 53°48' E 000°45'9 9.4
2014-Oct-24 11:34N 53°55' E 000°34'10 9.5
2014-Oct-24 10:34N 54°02' E 000°23'9 9.4
2014-Oct-24 09:34N 54°09' E 000°12'9 8.6
2014-Oct-24 08:34N 54°15' E 000°02'1010.0
2014-Oct-24 07:34N 54°22' W 000°10'1110.6
2014-Oct-24 06:34N 54°30' W 000°23'1111.0
2014-Oct-24 05:33N 54°36' W 000°39'1111.6
2014-Oct-24 04:33N 54°39' W 000°58'10 0.8
2014-Oct-23 16:20N 54°35' W 001°15'0 0.0
2014-Oct-23 15:23N 54°35' W 001°15'0 0.0
2014-Oct-23 14:26N 54°35' W 001°15'0 0.0
2014-Oct-23 13:29N 54°35' W 001°15'0 0.0
2014-Oct-23 12:23N 54°35' W 001°15'0 0.0
2014-Oct-23 11:29N 54°35' W 001°15'0 0.0
2014-Oct-23 10:32N 54°35' W 001°15'0 0.0
2014-Oct-23 09:14N 54°35' W 001°15'0 0.0
2014-Oct-23 08:30N 54°35' W 001°15'0 0.0
2014-Oct-23 07:32N 54°35' W 001°15'0 0.0
2014-Oct-23 05:21N 54°35' W 001°15'0 0.0
2014-Oct-22 10:26N 54°35' W 001°15'0 0.0
2014-Oct-22 09:11N 54°35' W 001°15'0 0.0
2014-Oct-22 08:23N 54°35' W 001°15'0 0.0
2014-Oct-22 07:23N 54°35' W 001°15'  
Track history (hours):
 
Tides and Currents Weather Stations Pressure Air Temp Water Temp Dewpoint Dewpoint Depression Visibility Wind Speed Wind Dir Waves Ship Positions

Jrs Mira

Last reported at 2014-Oct-30 18:30 UTC. Time now 2014-Oct-31 21:29 UTC.
Position N 35°56' W 005°12'.

Length 107 m; draft 8.4 m.

Type: Cargo ship. MMSI: 305780000.

Date/timePositionNaut miles runAvg speedWind from/ knotsBaromVisibWave heightAir tempDewpointWater temp
2014-Oct-30 18:30N 35°56' W 005°12'6 5.9
2014-Oct-30 17:31N 35°54' W 005°18'0 0.0
2014-Oct-30 16:31N 35°54' W 005°18'0 0.0
2014-Oct-30 15:31N 35°54' W 005°18'0 0.0
2014-Oct-30 14:31N 35°54' W 005°18'1 1.3
2014-Oct-30 13:33N 35°55' W 005°19'9 8.6
2014-Oct-30 12:32N 35°56' W 005°30'146 9.8
2014-Oct-29 21:33N 36°23' W 008°28'10 9.7
2014-Oct-29 20:33N 36°26' W 008°39'10 9.6
2014-Oct-29 19:33N 36°28' W 008°51'2010.1
2014-Oct-29 17:33N 36°33' W 009°15'12 9.6
2014-Oct-29 16:18N 36°42' W 009°26'7 9.9
2014-Oct-29 15:33N 36°47' W 009°32'3310.0
2014-Oct-29 12:17N 37°19' W 009°42'710.0
2014-Oct-29 11:33N 37°26' W 009°44'1110.7
2014-Oct-29 10:33N 37°36' W 009°47'1210.8
2014-Oct-29 09:26N 37°48' W 009°50'910.6
2014-Oct-29 08:33N 37°57' W 009°53'1611.0
2014-Oct-29 07:06N 38°13' W 009°58'610.8
2014-Oct-29 06:32N 38°19' W 009°59'47210.3
2014-Oct-27 08:33N 46°03' W 008°03'2410.0
2014-Oct-27 06:07N 46°24' W 007°48'610.3
2014-Oct-27 05:33N 46°29' W 007°44'258 9.6
2014-Oct-26 02:33N 49°46' W 003°32'1211.6
2014-Oct-26 01:33N 49°52' W 003°17'13310.1
2014-Oct-25 12:25N 50°32' E 000°02'910.2
2014-Oct-25 11:30N 50°35' E 000°16'9 9.3
2014-Oct-25 10:33N 50°37' E 000°29'9 8.7
2014-Oct-25 09:33N 50°41' E 000°41'10 9.6
2014-Oct-25 08:33N 50°47' E 000°53'1111.2
2014-Oct-25 07:33N 50°54' E 001°07'1313.0
2014-Oct-25 06:33N 51°02' E 001°23'1312.6
2014-Oct-25 05:34N 51°10' E 001°38'1110.7
2014-Oct-25 04:34N 51°19' E 001°49'10 9.6
2014-Oct-25 03:34N 51°27' E 001°56'9 8.8
2014-Oct-25 02:34N 51°34' E 002°04'9 8.7
2014-Oct-25 01:31N 51°42' E 002°13'4711.0
2014-Oct-24 21:15N 52°28' E 002°14'2412.3
2014-Oct-24 19:16N 52°52' E 002°02'912.7
2014-Oct-24 18:34N 52°57' E 001°50'1211.9
2014-Oct-24 17:33N 53°06' E 001°36'1211.3
2014-Oct-24 16:30N 53°16' E 001°27'3510.4
2014-Oct-24 13:06N 53°44' E 000°51'5 9.8
2014-Oct-24 12:33N 53°48' E 000°45'9 9.4
2014-Oct-24 11:34N 53°55' E 000°34'10 9.5
2014-Oct-24 10:34N 54°02' E 000°23'9 9.4
2014-Oct-24 09:34N 54°09' E 000°12'9 8.6
2014-Oct-24 08:34N 54°15' E 000°02'1010.0
2014-Oct-24 07:34N 54°22' W 000°10'1110.6
2014-Oct-24 06:34N 54°30' W 000°23'1111.0
2014-Oct-24 05:33N 54°36' W 000°39'1111.6
2014-Oct-24 04:33N 54°39' W 000°58'10 0.8
2014-Oct-23 16:20N 54°35' W 001°15'0 0.0
2014-Oct-23 15:23N 54°35' W 001°15'0 0.0
2014-Oct-23 14:26N 54°35' W 001°15'0 0.0
2014-Oct-23 13:29N 54°35' W 001°15'0 0.0
2014-Oct-23 12:23N 54°35' W 001°15'0 0.0
2014-Oct-23 11:29N 54°35' W 001°15'0 0.0
2014-Oct-23 10:32N 54°35' W 001°15'0 0.0
2014-Oct-23 09:14N 54°35' W 001°15'0 0.0
2014-Oct-23 08:30N 54°35' W 001°15'0 0.0
2014-Oct-23 07:32N 54°35' W 001°15'0 0.0
2014-Oct-23 05:21N 54°35' W 001°15'0 0.0
2014-Oct-22 10:26N 54°35' W 001°15'0 0.0
2014-Oct-22 09:11N 54°35' W 001°15'0 0.0
2014-Oct-22 08:23N 54°35' W 001°15'0 0.0
2014-Oct-22 07:23N 54°35' W 001°15'  

Dump ship's entire track history